Miscellaneous Local Product
Issued by NWS North Platte, NE

Home | Current Version | Previous Version | Text Only | Print | Product List | Glossary On
Versions: 1 2 3 4 5 6 7 8 9 10 11 12 13 14 15 16 17 18 19 20 21 22 23 24 25 26 27 28 29 30 31 32 33 34 35 36 37 38 39 40 41 42 43 44 45 46 47 48 49 50
000
AXUS43 KLBF 280110
MISLBF


WESTERN AND NORTH CENTRAL NEBRASKA HOURLY WEATHER ROUNDUP
NATIONAL WEATHER SERVICE NORTH PLATTE NE
800 PM CDT THU AUG 27 2015

NOTE: "FAIR" INDICATES FEW OR NO CLOUDS BELOW 12,000 FEET WITH NO
SIGNIFICANT WEATHER AND/OR OBSTRUCTIONS TO VISIBILITY.

NOTE: STATIONS NOT REPORTING VARIABLES SUCH AS SKY/WEATHER OR
PRESSURE ARE PROVIDED BY THE NEBRASKA DEPARTMENT OF
ROADS...RAWS...AND APRS NETWORKS...AND ARE NOT UNDER
NATIONAL WEATHER SERVICE QUALITY CONTROL.

...OBSERVATIONS IN AND NEAR THE EASTERN PANHANDLE OF NEBRASKA...

CITY           SKY/WX    TMP DP  RH WIND       PRES   REMARKS
PINE RIDGE     CLEAR     71  58  63 NE3       30.01S
CHADRON        CLEAR     74  57  55 E6        29.99F
ALLIANCE       PTCLDY    72  56  57 N9        30.02F
SIDNEY         PTCLDY    74  55  51 N12       30.04F
CRESCENT LAKE    N/A     72  58  60 NE8G21      N/A
BIG SPRINGS      N/A     78  61  56 N7          N/A
$$

...OBSERVATIONS IN NORTH CENTRAL NEBRASKA...

CITY           SKY/WX    TMP DP  RH WIND       PRES   REMARKS
THEDFORD       PTCLDY    76  67  72 N10       29.90S
AINSWORTH      MOCLDY    75  68  79 N6        29.89F
O`NEILL        CLOUDY    76  72  88 NE9       29.88F
ORD            MOCLDY    76  70  82 E8        29.81F
BROKEN BOW     TSTM      72  68  87 E13       29.85S FOG
SPRINGVIEW       N/A     75  68  79 NE10        N/A
SARGENT          N/A     71  68  90 W13G20      N/A
CHAMBERS         N/A     74  70  88 CALM        N/A
EWING            N/A     75  70  84 CALM        N/A
$$

...OBSERVATIONS IN SOUTHWEST NEBRASKA AND FAR NORTHEAST COLORADO...

CITY           SKY/WX    TMP DP  RH WIND       PRES   REMARKS
WRAY           FAIR      74  65  73 NW8       29.96S
HOLYOKE        FAIR      79  57  47 N14G21    29.97R
IMPERIAL       CLOUDY    81  61  50 N15       29.90R
OGALLALA       MOCLDY    78  61  55 N17G26    29.94R
NORTH PLATTE   CLEAR     78  66  66 N14G22    29.86R
MCCOOK         PTCLDY    86  57  37 W8        29.82R
LEXINGTON      PTCLDY    82  71  69 N16       29.81R
PAXTON           N/A     80  66  62 NW6         N/A
BRADY            N/A     79  65  62 CALM        N/A
CALLAWAY         N/A     75  69  81 NE3         N/A
$$

...OBSERVATIONS IN CENTRAL LINCOLN COUNTY AREA...

CITY           SKY/WX    TMP DP  RH WIND       PRES   REMARKS
N.P. AIRPORT   CLEAR     78  66  66 N14G22    29.86R
N.P. DOWNTOWN    N/A     79  67  67 N5G12       N/A
N.P. SOUTHEAST   N/A     79  66  64 N8G15       N/A
$$

...SOME OBSERVATIONS FROM AROUND THE REGION...

CITY           SKY/WX    TMP DP  RH WIND       PRES   REMARKS
DENVER         MOCLDY    74  51  44 N10       30.13F
LARAMIE        CLOUDY    67  48  50 N12       30.27S
CHEYENNE       PTCLDY    72  49  44 N12       30.19R
SCOTTSBLUFF    PTCLDY    76  56  49 N8        30.03F
RAPID CITY     CLEAR     72  62  71 SE5       30.00S
PIERRE         CLOUDY    70  66  87 NE14      29.89F
WINNER         FAIR      74  70  87 E7        29.90S
SIOUX FALLS    TSTM      69  64  84 VRB7      29.95R
OMAHA          MOCLDY    77  67  71 SE12      29.91R
GRAND ISLAND   MOCLDY    78  67  68 S21G29    29.82F
KANSAS CITY    MOCLDY    72  64  76 SE12      29.97S
WICHITA        MOCLDY    81  65  58 S15       29.92R
HAYS           MOCLDY    82  63  51 S23G31    29.83R
LIBERAL        MOCLDY    90  55  31 S21G28    29.89F
GOODLAND       MOCLDY    85  57  38 N6        29.92S
$$



USA.gov is the U.S. government's official web portal to all federal, state and local government web resources and services.